VE3KSR Weather Reports


Display with metric or nautical units.
time (UTC)temp
F
wind
direction
speed
MPH
gust
MPH
rain 1hr
in
rain 24hr
in
rain mn
in
humidity
%
barometer
mb
20140423142709 35 342 21.0 28.0 0.05 0.00 0.00 91 1012.5
20140423142534 35 342 21.0 28.0 0.05 0.00 0.00 91 1012.5
20140423142034 35 346 17.0 26.0 0.05 0.00 0.00 92 1012.5
20140423141534 35 357 23.0 30.0 0.05 0.00 0.00 91 1012.5
20140423141216 35 350 16.0 23.0 0.05 0.00 0.00 91 1012.6
20140423141034 35 350 16.0 23.0 0.05 0.00 0.00 91 1012.6
20140423140534 34 11 19.0 24.0 0.05 0.00 0.00 92 1012.5
20140423140034 34 11 22.0 30.0 0.05 0.00 0.00 92 1012.6
20140423135534 34 346 23.0 31.0 0.05 0.00 0.00 92 1012.6
20140423135034 34 338 24.0 32.0 0.05 0.00 0.00 92 1012.5
20140423134534 34 340 23.0 33.0 0.05 0.00 0.00 93 1012.6
20140423134034 34 345 24.0 37.0 0.05 0.00 0.00 92 1012.4
20140423133534 34 345 18.0 26.0 0.05 0.00 0.00 92 1012.7
20140423133034 34 353 23.0 33.0 0.05 0.00 0.00 92 1012.5
20140423132716 33 339 18.0 24.0 0.05 0.00 0.00 92 1012.5
20140423132534 33 339 18.0 24.0 0.05 0.00 0.00 92 1012.5
20140423132034 33 28 23.0 30.0 0.05 0.00 0.00 92 1012.4
20140423131534 33 15 22.0 30.0 0.05 0.00 0.00 92 1012.4
20140423131035 33 30 22.0 28.0 0.05 0.00 0.00 93 1012.4
20140423130537 32 11 21.0 29.0 0.05 0.00 0.00 93 1012.5
20140423130034 32 13 23.0 32.0 0.05 0.00 0.00 93 1012.4
20140423125534 32 332 23.0 32.0 0.05 0.00 0.00 93 1012.3
20140423125034 32 346 26.0 36.0 0.05 0.00 0.00 93 1012.2
20140423124534 32 352 26.0 34.0 0.05 0.00 0.00 91 1011.9
20140423124034 32 14 23.0 34.0 0.05 0.00 0.00 94 1012.0
20140423123535 32 11 21.0 32.0 0.05 0.00 0.00 94 1011.8
20140423123034 32 3 23.0 31.0 0.05 0.00 0.00 94 1011.6
20140423122729 32 11 22.0 31.0 0.05 0.00 0.00 94 1011.7
20140423122534 32 11 22.0 31.0 0.05 0.00 0.00 94 1011.7
20140423122034 32 20 24.0 30.0 0.05 0.00 0.00 94 1011.3
20140423121534 32 346 22.0 32.0 0.05 0.00 0.00 95 1011.4
20140423121034 32 4 23.0 33.0 0.05 0.00 0.00 95 1011.4
20140423120534 32 353 27.0 32.0 0.05 0.00 0.00 95 1011.3
20140423120035 32 342 23.0 33.0 0.05 0.00 0.00 95 1011.3
20140423115534 32 4 26.0 32.0 0.05 0.00 0.00 95 1011.3
20140423115035 32 13 29.0 37.0 0.05 0.00 0.00 95 1011.2
20140423114534 32 3 24.0 35.0 0.05 0.00 0.00 96 1011.0
20140423114034 32 11 25.0 36.0 0.05 0.00 0.00 96 1011.0
20140423113535 32 21 24.0 32.0 0.05 0.00 0.00 96 1010.7
20140423113034 32 21 25.0 33.0 0.05 0.00 0.00 97 1010.7
20140423112709 32 340 22.0 31.0 0.05 0.00 0.00 96 1010.7
20140423112534 32 340 22.0 31.0 0.05 0.00 0.00 96 1010.7
20140423112034 32 346 24.0 33.0 0.05 0.00 0.00 97 1010.7
20140423111534 32 356 29.0 39.0 0.05 0.00 0.00 97 1010.6
20140423111202 32 6 27.0 35.0 0.05 0.00 0.00 97 1010.4
20140423111034 32 6 27.0 35.0 0.05 0.00 0.00 97 1010.4
20140423110534 32 14 23.0 33.0 0.05 0.00 0.00 97 1010.6
20140423110034 32 21 25.0 34.0 0.05 0.00 0.00 96 1010.5
20140423105534 32 357 23.0 28.0 0.05 0.00 0.00 96 1010.5
20140423105035 32 6 26.0 39.0 0.05 0.00 0.00 96 1010.4
20140423104536 32 349 25.0 39.0 0.05 0.00 0.00 96 1010.4
20140423104035 32 350 24.0 31.0 0.05 0.00 0.00 96 1010.3
20140423103536 32 17 27.0 36.0 0.05 0.00 0.00 96 1010.3
20140423103036 32 13 21.0 29.0 0.05 0.00 0.00 96 1010.2
20140423102705 32 347 25.0 35.0 0.05 0.00 0.00 96 1010.2
20140423102535 32 347 25.0 35.0 0.05 0.00 0.00 96 1010.2
20140423102035 32 335 27.0 37.0 0.05 0.00 0.00 96 1010.0
20140423101535 32 352 25.0 35.0 0.05 0.00 0.00 96 1009.9
20140423101144 32 11 23.0 35.0 0.05 0.00 0.00 96 1009.9
20140423101035 32 11 23.0 35.0 0.05 0.00 0.00 96 1009.9
20140423100535 32 20 28.0 40.0 0.05 0.00 0.00 96 1009.7
20140423100035 32 342 27.0 39.0 0.05 0.00 0.00 96 1009.4
20140423095703 32 359 22.0 29.0 0.05 0.00 0.00 96 1009.7
20140423095535 32 359 22.0 29.0 0.05 0.00 0.00 96 1009.7
20140423095035 32 0 21.0 26.0 0.05 0.00 0.00 96 1009.6
20140423094535 32 352 23.0 34.0 0.05 0.00 0.00 96 1009.4
20140423094201 32 10 22.0 31.0 0.05 0.00 0.00 96 1009.4
20140423094035 32 10 22.0 31.0 0.05 0.00 0.00 96 1009.4
20140423093535 32 353 27.0 38.0 0.05 0.00 0.00 96 1009.2
20140423093035 32 14 23.0 31.0 0.05 0.00 0.00 97 1009.2
20140423092657 32 345 24.0 31.0 0.05 0.00 0.00 96 1009.1
20140423092535 32 345 24.0 31.0 0.05 0.00 0.00 96 1009.1
20140423092036 33 11 23.0 30.0 0.05 0.00 0.00 97 1009.1
20140423091535 33 352 24.0 31.0 0.05 0.00 0.00 97 1008.9
20140423091157 33 346 26.0 35.0 0.05 0.00 0.00 97 1008.7
20140423091035 33 346 26.0 35.0 0.05 0.00 0.00 97 1008.7
20140423090535 33 357 23.0 29.0 0.05 0.00 0.00 97 1008.8
20140423090035 32 345 22.0 30.0 0.05 0.00 0.00 97 1008.7
20140423085535 32 352 23.0 31.0 0.05 0.00 0.00 97 1008.7
20140423085035 33 350 22.0 30.0 0.05 0.00 0.00 97 1008.9
20140423084535 33 345 21.0 26.0 0.05 0.00 0.00 97 1008.8
20140423084035 33 347 21.0 28.0 0.05 0.00 0.00 97 1008.7
20140423083535 33 346 23.0 30.0 0.05 0.00 0.00 97 1008.5
20140423083036 33 346 20.0 28.0 0.05 0.00 0.00 97 1008.2
20140423082535 33 7 20.0 27.0 0.05 0.00 0.00 97 1008.1
20140423082035 33 354 24.0 30.0 0.05 0.00 0.00 97 1008.0
20140423081535 32 346 27.0 34.0 0.05 0.00 0.00 97 1007.8
20140423081155 32 346 26.0 36.0 0.05 0.00 0.00 97 1007.7
20140423081035 32 346 26.0 36.0 0.05 0.00 0.00 97 1007.7
20140423080535 33 17 24.0 32.0 0.05 0.00 0.00 97 1007.7
20140423080035 33 353 23.0 32.0 0.05 0.00 0.00 97 1007.6
20140423075535 33 332 20.0 28.0 0.05 0.00 0.00 97 1007.7
20140423075035 33 346 23.0 33.0 0.05 0.00 0.00 97 1007.7
20140423074535 33 350 22.0 30.0 0.05 0.00 0.00 97 1007.4
20140423074147 33 359 26.0 34.0 0.05 0.00 0.00 97 1007.4
20140423074035 33 359 26.0 34.0 0.05 0.00 0.00 97 1007.4
20140423073535 33 6 25.0 33.0 0.05 0.00 0.00 97 1007.3
20140423073035 33 342 23.0 35.0 0.05 0.00 0.00 97 1007.2
20140423072535 33 339 22.0 35.0 0.05 0.00 0.00 97 1007.3
20140423072035 33 4 26.0 35.0 0.05 0.00 0.00 97 1007.3
20140423071535 33 342 25.0 34.0 0.05 0.00 0.00 97 1007.3
20140423071035 33 346 22.0 31.0 0.05 0.00 0.00 97 1007.3
20140423070535 33 326 28.0 35.0 0.05 0.00 0.00 97 1007.4
20140423070035 33 339 25.0 33.0 0.05 0.00 0.00 97 1007.4
20140423065648 33 345 24.0 35.0 0.05 0.00 0.00 97 1007.3
20140423065535 33 345 24.0 35.0 0.05 0.00 0.00 97 1007.3
20140423065035 33 342 25.0 41.0 0.05 0.00 0.00 98 1007.3
20140423064536 33 352 23.0 31.0 0.05 0.00 0.00 98 1007.3
20140423064138 33 333 26.0 38.0 0.05 0.00 0.00 98 1007.4
20140423064035 33 333 26.0 38.0 0.05 0.00 0.00 98 1007.4
20140423063535 33 340 20.0 29.0 0.05 0.00 0.00 98 1007.4
20140423063036 33 7 22.0 31.0 0.05 0.00 0.00 98 1007.3
20140423062535 33 342 23.0 32.0 0.05 0.00 0.00 98 1007.3
20140423062035 33 342 25.0 38.0 0.05 0.00 0.00 98 1007.3
20140423061535 33 339 21.0 27.0 0.05 0.00 0.00 99 1007.5
20140423061144 33 346 26.0 34.0 0.05 0.00 0.00 98 1007.5
20140423061035 33 346 26.0 34.0 0.05 0.00 0.00 98 1007.5
20140423060535 33 357 24.0 33.0 0.05 0.00 0.00 99 1007.5
20140423060035 33 349 23.0 30.0 0.05 0.00 0.00 99 1007.5
20140423055535 33 347 23.0 30.0 0.05 0.00 0.00 99 1007.4
20140423055035 33 336 22.0 29.0 0.05 0.00 0.00 99 1007.5
20140423054536 33 342 21.0 33.0 0.05 0.00 0.00 99 1007.4
20140423054142 33 340 24.0 33.0 0.05 0.00 0.00 98 1007.3
20140423054035 33 340 24.0 33.0 0.05 0.00 0.00 98 1007.3
20140423053535 33 345 22.0 33.0 0.05 0.00 0.00 98 1007.2
20140423053035 33 343 23.0 32.0 0.05 0.00 0.00 98 1007.1
20140423052659 33 1 26.0 35.0 0.05 0.00 0.00 98 1006.8
20140423052535 33 1 26.0 35.0 0.05 0.00 0.00 98 1006.8
20140423052035 33 354 24.0 31.0 0.05 0.00 0.00 99 1007.1
20140423051535 33 343 22.0 32.0 0.05 0.00 0.00 99 1007.0
20140423051156 33 339 22.0 33.0 0.05 0.00 0.00 98 1006.8
20140423051036 33 339 22.0 33.0 0.05 0.00 0.00 98 1006.8
20140423050535 33 350 24.0 32.0 0.05 0.00 0.00 98 1007.0
20140423050035 34 330 21.0 28.0 0.05 0.00 0.00 98 1006.9
20140423045535 34 339 21.0 30.0 0.05 0.00 0.00 98 1007.1
20140423045035 34 340 22.0 30.0 0.05 0.00 0.00 98 1007.2
20140423044535 34 349 21.0 29.0 0.05 0.00 0.00 98 1007.2
20140423044035 34 326 21.0 28.0 0.05 0.00 0.00 98 1007.3
20140423043535 34 345 21.0 29.0 0.05 0.00 0.00 98 1007.4
20140423043035 34 336 20.0 29.0 0.05 0.00 0.00 98 1007.1
20140423042535 34 339 22.0 31.0 0.05 0.00 0.00 98 1007.2
20140423042035 34 345 21.0 30.0 0.05 0.00 0.00 98 1007.4
20140423041536 34 340 19.0 29.0 0.05 0.00 0.00 97 1007.4
20140423041151 34 316 20.0 29.0 0.05 0.00 0.00 97 1007.3
20140423041035 34 316 20.0 29.0 0.05 0.00 0.00 97 1007.3
20140423040535 34 318 20.0 31.0 0.05 0.00 0.00 97 1007.4
20140423040035 34 350 21.0 32.0 0.05 0.00 0.00 97 1007.4
20140423035659 34 325 22.0 28.0 0.05 0.00 0.00 97 1007.3
20140423035535 34 325 22.0 28.0 0.05 0.00 0.00 97 1007.3
20140423035035 34 318 19.0 29.0 0.05 0.00 0.00 96 1007.1
20140423034535 34 311 20.0 27.0 0.05 0.00 0.00 96 1007.0
20140423034201 34 340 21.0 29.0 0.05 0.00 0.00 96 1006.9
20140423034035 34 340 21.0 29.0 0.05 0.00 0.00 96 1006.9
20140423033535 35 323 21.0 29.0 0.05 0.00 0.00 96 1006.9
20140423033035 35 323 21.0 31.0 0.05 0.00 0.00 95 1006.8
20140423032535 35 335 21.0 28.0 0.05 0.00 0.00 95 1007.0
20140423032035 35 347 19.0 24.0 0.05 0.00 0.00 95 1007.1
20140423031536 35 325 22.0 30.0 0.05 0.00 0.00 95 1007.0
20140423031036 35 318 22.0 31.0 0.05 0.00 0.00 95 1007.0
20140423031030 35 318 22.0 28.0 0.05 0.00 0.00 95 1007.2
20140423030535 35 330 22.0 28.0 0.05 0.00 0.00 95 1007.0
20140423030035 35 336 21.0 29.0 0.05 0.00 0.00 95 1007.1
20140423025535 35 319 24.0 32.0 0.05 0.00 0.00 95 1007.1
20140423025035 35 318 22.0 28.0 0.05 0.00 0.00 95 1007.2
20140423024535 35 340 21.0 31.0 0.05 0.00 0.00 95 1007.3
20140423024036 35 325 22.0 31.0 0.05 0.00 0.00 95 1007.3
20140423023535 35 319 23.0 31.0 0.05 0.00 0.00 95 1007.3
20140423023035 35 336 21.0 28.0 0.05 0.00 0.00 95 1007.3
20140423022657 35 319 20.0 28.0 0.05 0.00 0.00 95 1007.2
20140423022535 35 319 20.0 28.0 0.05 0.00 0.00 95 1007.2
20140423022036 35 343 20.0 27.0 0.05 0.00 0.00 95 1007.2
20140423021536 35 316 18.0 24.0 0.05 0.00 0.00 95 1007.1
20140423021202 35 332 22.0 30.0 0.05 0.00 0.00 95 1006.9
20140423021036 35 332 22.0 30.0 0.05 0.00 0.00 95 1006.9
20140423020536 35 329 21.0 30.0 0.05 0.00 0.00 94 1006.8
20140423020036 35 315 22.0 31.0 0.05 0.00 0.00 95 1006.8
20140423015705 35 319 25.0 37.0 0.05 0.00 0.00 94 1006.7
20140423015536 35 319 25.0 37.0 0.05 0.00 0.00 94 1006.7
20140423015037 36 311 25.0 36.0 0.05 0.00 0.00 94 1006.8
20140423014536 36 314 24.0 33.0 0.05 0.00 0.00 94 1006.8
20140423014036 36 330 21.0 28.0 0.05 0.00 0.00 94 1006.8
20140423013536 36 338 26.0 35.0 0.05 0.00 0.00 94 1006.8
20140423013036 36 325 28.0 36.0 0.05 0.00 0.00 94 1006.8
20140423012536 36 1 22.0 30.0 0.05 0.00 0.00 94 1006.9
20140423012036 36 319 27.0 37.0 0.05 0.00 0.00 94 1006.8
20140423011536 36 345 25.0 30.0 0.05 0.00 0.00 94 1006.8
20140423011036 36 340 23.0 32.0 0.05 0.00 0.00 94 1006.8
20140423010536 36 316 24.0 33.0 0.05 0.00 0.00 94 1006.9
20140423010036 36 342 24.0 40.0 0.05 0.00 0.00 95 1006.9
20140423005536 36 340 25.0 34.0 0.05 0.00 0.00 94 1006.7
20140423005036 36 316 26.0 35.0 0.05 0.00 0.00 94 1006.5
20140423004536 36 319 26.0 43.0 0.05 0.00 0.00 94 1006.2
20140423004206 36 311 28.0 34.0 0.05 0.00 0.00 94 1006.3
20140423004036 36 311 28.0 34.0 0.05 0.00 0.00 94 1006.3
20140423003536 36 326 28.0 37.0 0.05 0.00 0.00 94 1005.9
20140423003036 36 323 29.0 42.0 0.05 0.00 0.00 95 1005.7
20140423002536 36 333 22.0 30.0 0.05 0.00 0.00 95 1005.8
20140423002036 36 322 27.0 36.0 0.05 0.00 0.00 95 1005.7
20140423001536 36 302 28.0 38.0 0.05 0.00 0.00 96 1005.7
20140423001211 36 321 28.0 34.0 0.05 0.00 0.00 96 1005.8
20140423001036 36 321 28.0 34.0 0.05 0.00 0.00 96 1005.8
20140423000536 36 316 27.0 40.0 0.05 0.00 0.00 96 1005.7
20140423000037 36 316 25.0 37.0 0.05 0.00 0.00 96 1005.8
20140422235536 36 309 27.0 36.0 0.05 0.00 0.00 97 1005.9
20140422235038 36 329 27.0 35.0 0.05 0.00 0.00 97 1005.7
20140422234536 36 326 29.0 36.0 0.05 0.00 0.00 97 1005.8
20140422234036 36 319 24.0 32.0 0.05 0.00 0.00 97 1005.7
20140422233536 36 347 25.0 34.0 0.05 0.00 0.00 97 1005.6
20140422233036 36 325 28.0 40.0 0.05 0.00 0.00 97 1005.4
20140422232537 36 326 23.0 31.0 0.05 0.00 0.00 97 1005.5
20140422232037 36 330 26.0 33.0 0.05 0.00 0.00 97 1005.2
20140422231536 36 343 27.0 37.0 0.05 0.00 0.00 97 1005.3
20140422231036 36 328 26.0 36.0 0.05 0.00 0.00 97 1005.2
20140422230536 36 328 25.0 37.0 0.05 0.00 0.00 97 1005.2
20140422230038 37 321 26.0 37.0 0.05 0.00 0.00 97 1005.4
20140422225536 36 353 31.0 45.0 0.05 0.00 0.00 97 1005.2
20140422225036 37 345 28.0 39.0 0.05 0.00 0.00 97 1005.3
20140422224537 37 326 29.0 41.0 0.05 0.00 0.00 97 1005.2
20140422224036 37 340 29.0 39.0 0.05 0.00 0.00 97 1005.2
20140422223536 37 316 29.0 42.0 0.05 0.00 0.00 97 1005.2
20140422223036 37 312 29.0 36.0 0.05 0.00 0.00 97 1005.2
20140422222536 37 323 25.0 34.0 0.05 0.00 0.00 97 1005.1
20140422222037 37 328 27.0 40.0 0.05 0.00 0.00 97 1005.2
20140422221536 37 323 23.0 35.0 0.05 0.00 0.00 97 1005.1
20140422221210 37 343 24.0 34.0 0.05 0.00 0.00 97 1004.9
20140422221036 37 343 24.0 34.0 0.05 0.00 0.00 97 1004.9
20140422220536 37 342 24.0 34.0 0.05 0.00 0.00 97 1005.0
20140422220036 37 346 26.0 34.0 0.05 0.00 0.00 96 1004.9
20140422215536 37 339 28.0 40.0 0.05 0.00 0.00 95 1004.9
20140422215036 37 345 26.0 38.0 0.05 0.00 0.00 95 1005.0
20140422214536 37 323 25.0 33.0 0.05 0.00 0.00 96 1005.1
20140422214036 37 326 26.0 33.0 0.05 0.00 0.00 95 1005.3
20140422213539 37 332 26.0 36.0 0.05 0.00 0.00 95 1005.3
20140422213036 37 321 29.0 36.0 0.05 0.00 0.00 96 1005.3
20140422212537 37 354 25.0 38.0 0.05 0.00 0.00 96 1005.2
20140422212039 38 349 25.0 33.0 0.05 0.00 0.00 94 1005.1
20140422211536 38 325 27.0 37.0 0.05 0.00 0.00 95 1005.0
20140422211036 38 332 24.0 33.0 0.05 0.00 0.00 95 1004.9
20140422210536 38 309 23.0 31.0 0.05 0.00 0.00 94 1004.8
20140422210036 38 343 26.0 32.0 0.05 0.00 0.00 94 1004.7
20140422205536 38 319 24.0 32.0 0.05 0.00 0.00 94 1004.8
20140422205037 38 312 25.0 33.0 0.05 0.00 0.00 94 1004.8
20140422204536 38 308 26.0 35.0 0.05 0.00 0.00 94 1005.0
20140422204221 38 325 26.0 37.0 0.05 0.00 0.00 94 1004.7
20140422204036 38 325 26.0 37.0 0.05 0.00 0.00 94 1004.7
20140422203537 38 318 27.0 37.0 0.05 0.00 0.00 94 1004.9
20140422203037 39 312 28.0 37.0 0.05 0.00 0.00 93 1004.9
20140422202727 39 309 27.0 34.0 0.05 0.00 0.00 93 1005.0
20140422202536 39 309 27.0 34.0 0.05 0.00 0.00 93 1005.0
20140422202036 39 328 27.0 38.0 0.05 0.00 0.00 93 1004.9
20140422201542 38 328 27.0 36.0 0.05 0.00 0.00 93 1004.8
20140422200039 38 311 27.0 36.0 0.05 0.00 0.00 93 1004.5
20140422195720 38 322 30.0 36.0 0.05 0.00 0.00 93 1004.4
20140422195536 38 322 30.0 36.0 0.05 0.00 0.00 93 1004.4
20140422195037 38 347 27.0 36.0 0.05 0.00 0.00 93 1004.4
20140422194536 38 325 27.0 40.0 0.05 0.00 0.00 93 1004.3
20140422194036 38 346 28.0 37.0 0.05 0.00 0.00 93 1004.5
20140422193536 38 321 27.0 37.0 0.05 0.00 0.00 94 1004.5
20140422193036 38 342 25.0 33.0 0.05 0.00 0.00 95 1004.6
20140422192536 38 343 26.0 36.0 0.05 0.00 0.00 95 1004.6
20140422192036 38 326 24.0 34.0 0.05 0.00 0.00 95 1004.8
20140422191536 38 333 23.0 31.0 0.05 0.00 0.00 96 1004.9
20140422191037 38 349 21.0 31.0 0.05 0.00 0.00 96 1004.9
20140422190538 37 325 24.0 31.0 0.05 0.00 0.00 96 1004.8
20140422190036 37 326 24.0 32.0 0.05 0.00 0.00 96 1004.6
20140422185536 37 326 24.0 31.0 0.05 0.00 0.00 97 1004.7
20140422185037 37 325 24.0 32.0 0.05 0.00 0.00 97 1004.7
20140422184538 37 335 24.0 36.0 0.05 0.00 0.00 96 1004.5
20140422184038 37 319 27.0 36.0 0.05 0.00 0.00 96 1004.6
20140422183537 38 322 23.0 33.0 0.05 0.00 0.00 96 1004.7
20140422183037 38 342 21.0 27.0 0.05 0.00 0.00 96 1004.9
20140422182537 38 345 21.0 29.0 0.05 0.00 0.00 97 1004.9
20140422182037 38 343 23.0 31.0 0.05 0.00 0.00 92 1004.9
20140422181537 38 340 23.0 29.0 0.05 0.00 0.00 96 1004.8
20140422181038 38 342 23.0 30.0 0.05 0.00 0.00 97 1004.8
20140422180540 38 325 27.0 33.0 0.05 0.00 0.00 97 1004.8
20140422180037 37 346 25.0 33.0 0.05 0.00 0.00 97 1004.6
20140422175707 37 323 24.0 33.0 0.05 0.00 0.00 98 1004.6
20140422175537 37 323 24.0 33.0 0.05 0.00 0.00 98 1004.6
20140422175037 37 325 24.0 33.0 0.05 0.00 0.00 98 1004.4
20140422174537 37 343 23.0 32.0 0.05 0.00 0.00 98 1004.4
20140422174215 37 328 23.0 32.0 0.05 0.00 0.00 98 1004.3
20140422174037 37 328 23.0 32.0 0.05 0.00 0.00 98 1004.3
20140422173538 37 325 25.0 35.0 0.05 0.00 0.00 98 1004.3
20140422173037 38 345 24.0 35.0 0.05 0.00 0.00 98 1004.5
20140422172537 37 322 27.0 33.0 0.05 0.00 0.00 98 1004.6
20140422172037 37 342 27.0 42.0 0.05 0.00 0.00 98 1004.7
20140422171538 37 312 25.0 33.0 0.05 0.00 0.00 98 1004.6
20140422171218 37 349 26.0 37.0 0.05 0.00 0.00 98 1004.6
20140422171037 37 349 26.0 37.0 0.05 0.00 0.00 98 1004.6
20140422170537 37 340 24.0 33.0 0.05 0.00 0.00 99 1004.7
20140422170037 37 318 25.0 33.0 0.05 0.00 0.00 99 1004.6
20140422165537 37 319 25.0 33.0 0.05 0.00 0.00 99 1004.5
20140422165038 37 328 25.0 31.0 0.05 0.00 0.00 99 1004.4
20140422164537 37 352 26.0 41.0 0.05 0.00 0.00 99 1004.2
20140422164037 37 340 23.0 29.0 0.05 0.00 0.00 99 1004.3
20140422163537 37 349 25.0 37.0 0.05 0.00 0.00 99 1004.1
20140422163038 37 349 24.0 37.0 0.05 0.00 0.00 99 1004.0
20140422162539 37 330 23.0 31.0 0.05 0.00 0.00 99 1004.3
20140422162037 37 345 21.0 31.0 0.05 0.00 0.00 99 1004.3
20140422161537 37 347 23.0 31.0 0.05 0.00 0.00 99 1004.4
20140422161037 38 338 21.0 29.0 0.05 0.00 0.00 99 1004.5
20140422160537 37 338 24.0 32.0 0.05 0.00 0.00 98 1004.4
20140422160038 38 343 25.0 33.0 0.05 0.00 0.00 99 1004.4
20140422155538 38 346 24.0 35.0 0.05 0.00 0.00 99 1004.6
20140422155037 38 346 23.0 34.0 0.05 0.00 0.00 99 1004.5
20140422154538 38 329 23.0 33.0 0.05 0.00 0.00 99 1004.7
20140422154214 38 349 25.0 35.0 0.05 0.00 0.00 99 1004.7
20140422154037 38 349 25.0 35.0 0.05 0.00 0.00 99 1004.7
20140422153538 38 345 26.0 37.0 0.05 0.00 0.00 99 1004.4
20140422153118 37 345 25.0 34.0 0.05 0.00 0.00 99 1004.4
20140422153037 37 345 25.0 34.0 0.05 0.00 0.00 99 1004.4
20140422152714 38 342 25.0 36.0 0.05 0.00 0.00 99 1004.2
20140422152538 38 342 25.0 36.0 0.05 0.00 0.00 99 1004.2
20140422152037 38 352 25.0 35.0 0.05 0.00 0.00 100 1004.2
20140422151538 38 328 22.0 30.0 0.05 0.00 0.00 100 1004.0
20140422151217 37 346 23.0 30.0 0.05 0.00 0.00 100 1004.0
20140422151037 37 346 23.0 30.0 0.05 0.00 0.00 100 1004.0
20140422150537 37 329 24.0 32.0 0.05 0.00 0.00 100 1004.0
20140422150037 37 349 23.0 32.0 0.05 0.00 0.00 100 1004.1
20140422145717 37 342 25.0 33.0 0.05 0.00 0.00 100 1004.0
20140422145537 37 342 25.0 33.0 0.05 0.00 0.00 100 1004.0
20140422145038 37 4 26.0 36.0 0.05 0.00 0.00 100 1004.1
20140422144538 37 338 25.0 35.0 0.05 0.00 0.00 100 1004.1
20140422144037 38 343 26.0 32.0 0.05 0.00 0.00 100 1004.2
20140422143538 37 342 25.0 36.0 0.05 0.00 0.00 100 1004.2
20140422143038 38 323 22.0 29.0 0.05 0.00 0.00 100 1004.2